Weather History for KYKN - March, 2014

Change the Weather History Date:

Wednesday, March 19, 2014

  Actual Average Record
Temperature  
Mean Temperature 35 °F -  
Max Temperature 46 °F 46 °F 74 °F (1968)
Min Temperature 24 °F 25 °F -2 °F (1965)
Degree Days  
Heating Degree Days 30    
Moisture  
Dew Point 27 °F    
Average Humidity 77    
Maximum Humidity 100    
Minimum Humidity 43    
Precipitation  
Precipitation 0.00 in - - ()
Sea Level Pressure  
Sea Level Pressure 30.02 in    
Wind  
Wind Speed 13 mph (WNW)    
Max Wind Speed 24 mph    
Max Gust Speed 30 mph    
Visibility 10 miles    
Events      
Averages and records for this station are not official NWS values.
T = Trace of Precipitation, MM = Missing Value Source: NWS Daily Summary

Daily Weather History Graph

Daily Weather History Graph

Search for Another Location

Airport or City:

Trip Planner

Search our weather history database for the weather conditions in past years. The results will help you decide how hot, cold, wet, or windy it might be!

Date:

Astronomy

Mar. 19, 2014 Rise Set
Actual Time 7:34 AM CDT 7:40 PM CDT
Civil Twilight 7:06 AM CDT 8:09 PM CDT
Nautical Twilight 6:33 AM CDT 8:42 PM CDT
Astronomical Twilight 5:59 AM CDT 9:15 PM CDT
Moon 11:05 PM CDT (3/19) 8:56 AM CDT (3/19)
Length of Visible Light 13h 02m
Length of Day
12h 06m
Waning Gibbous, 91% of the Moon is Illuminated
Mar 19
Waning Gibbous
Mar 23
Last Quarter
Mar 30
New
Apr 7
First Quarter
Apr 15
Full

Hourly Weather History & Observations

Time (CDT) Temp. Windchill Dew Point Humidity Pressure Visibility Wind Dir Wind Speed Gust Speed Precip Events Conditions
12:15 AM 30.2 °F 17.8 °F 28.4 °F 93% 29.93 in 10.0 mi NW 19.6 mph 25.3 mph N/A   Overcast
12:35 AM 30.2 °F 18.5 °F 26.6 °F 86% 29.94 in 10.0 mi NW 17.3 mph - N/A   Overcast
12:55 AM 30.2 °F 19.8 °F 26.6 °F 86% 29.94 in 10.0 mi NW 13.8 mph - N/A   Overcast
1:15 AM 30.2 °F 18.5 °F 26.6 °F 86% 29.95 in 10.0 mi NW 17.3 mph 23.0 mph N/A   Overcast
1:35 AM 30.2 °F 18.1 °F 26.6 °F 86% 29.95 in 10.0 mi NW 18.4 mph 24.2 mph N/A   Overcast
1:55 AM 30.2 °F 18.5 °F 24.8 °F 80% 29.95 in 10.0 mi NW 17.3 mph 29.9 mph N/A   Overcast
2:15 AM 30.2 °F 18.1 °F 24.8 °F 80% 29.96 in 10.0 mi NNW 18.4 mph 27.6 mph N/A   Overcast
2:35 AM 30.2 °F 20.2 °F 26.6 °F 86% 29.96 in 10.0 mi NNW 12.7 mph - N/A   Overcast
2:55 AM 30.2 °F 18.9 °F 26.6 °F 86% 29.97 in 10.0 mi NW 16.1 mph 20.7 mph N/A   Overcast
3:15 AM 30.2 °F 19.8 °F 26.6 °F 86% 29.97 in 10.0 mi NW 13.8 mph 19.6 mph N/A   Overcast
3:35 AM 30.2 °F 18.9 °F 24.8 °F 80% 29.97 in 10.0 mi NW 16.1 mph - N/A   Overcast
3:55 AM 28.4 °F 18.5 °F 24.8 °F 86% 29.97 in 10.0 mi NW 11.5 mph - N/A   Mostly Cloudy
4:15 AM 26.6 °F 16.8 °F 23.0 °F 86% 29.97 in 10.0 mi WNW 10.4 mph - N/A   Clear
4:35 AM 26.6 °F 16.2 °F 23.0 °F 86% 29.98 in 10.0 mi WNW 11.5 mph - N/A   Clear
4:55 AM 26.6 °F 16.2 °F 23.0 °F 86% 29.99 in 10.0 mi WNW 11.5 mph - N/A   Partly Cloudy
5:15 AM 26.6 °F 16.2 °F 24.8 °F 93% 29.99 in 10.0 mi WNW 11.5 mph - N/A   Scattered Clouds
5:35 AM 26.6 °F 17.5 °F 24.8 °F 93% 30.00 in 10.0 mi WNW 9.2 mph - N/A   Scattered Clouds
5:55 AM 24.8 °F 15.3 °F 21.2 °F 86% 30.01 in 10.0 mi West 9.2 mph - N/A   Clear
6:15 AM 24.8 °F 15.3 °F 21.2 °F 86% 30.01 in 10.0 mi West 9.2 mph - N/A   Clear
6:35 AM 26.6 °F 17.5 °F 24.8 °F 93% 30.01 in 10.0 mi West 9.2 mph - N/A   Mostly Cloudy
6:55 AM 26.6 °F 20.0 °F 21.2 °F 80% 30.01 in 10.0 mi West 5.8 mph - N/A   Scattered Clouds
7:15 AM 26.6 °F 17.5 °F 23.0 °F 86% 30.01 in 10.0 mi West 9.2 mph - N/A   Clear
7:35 AM 26.6 °F 16.2 °F 23.0 °F 86% 30.02 in 10.0 mi West 11.5 mph - N/A   Clear
7:55 AM 26.6 °F 17.5 °F 23.0 °F 86% 30.02 in 10.0 mi West 9.2 mph - N/A   Clear
8:15 AM 26.6 °F 17.5 °F 24.8 °F 93% 30.03 in 10.0 mi West 9.2 mph - N/A   Partly Cloudy
8:35 AM 26.6 °F 18.2 °F 21.2 °F 80% 30.03 in 8.0 mi West 8.1 mph - N/A   Partly Cloudy
8:55 AM 26.6 °F 17.5 °F 24.8 °F 93% 30.03 in 6.0 mi West 9.2 mph - N/A   Clear
9:15 AM 28.4 °F 18.0 °F 26.6 °F 93% 30.03 in 5.0 mi West 12.7 mph - N/A   Clear
9:35 AM 28.4 °F 19.1 °F 26.6 °F 93% 30.04 in 5.0 mi West 10.4 mph - N/A   Clear
9:55 AM 30.2 °F 20.8 °F 26.6 °F 86% 30.05 in 5.0 mi West 11.5 mph - N/A   Clear
10:15 AM 30.2 °F 20.8 °F 26.6 °F 86% 30.06 in 6.0 mi WNW 11.5 mph - N/A   Clear
10:35 AM 30.2 °F 20.2 °F 26.6 °F 86% 30.06 in 6.0 mi WNW 12.7 mph - N/A   Clear
10:55 AM 32.0 °F 23.0 °F 26.6 °F 80% 30.06 in 7.0 mi West 11.5 mph - N/A   Clear
11:15 AM 33.8 °F 24.8 °F 28.4 °F 81% 30.07 in 7.0 mi WNW 12.7 mph - N/A   Clear
11:35 AM 33.8 °F 25.8 °F 28.4 °F 81% 30.07 in 8.0 mi WNW 10.4 mph - N/A   Clear
11:55 AM 35.6 °F 27.1 °F 28.4 °F 75% 30.07 in 9.0 mi NW 12.7 mph - N/A   Clear
12:15 PM 35.6 °F 28.6 °F 30.2 °F 81% 30.07 in 9.0 mi West 9.2 mph - N/A   Clear
12:35 PM 37.4 °F 29.3 °F 28.4 °F 70% 30.07 in 10.0 mi West 12.7 mph - N/A   Clear
12:55 PM 37.4 °F 30.3 °F 28.4 °F 70% 30.07 in 10.0 mi West 10.4 mph 18.4 mph N/A   Clear
1:15 PM 39.2 °F 32.5 °F 28.4 °F 65% 30.07 in 10.0 mi WNW 10.4 mph 16.1 mph N/A   Clear
1:35 PM 39.2 °F 30.8 °F 28.4 °F 65% 30.06 in 10.0 mi West 15.0 mph 18.4 mph N/A   Clear
1:55 PM 41.0 °F 33.9 °F 28.4 °F 61% 30.06 in 10.0 mi WNW 12.7 mph 17.3 mph N/A   Clear
2:15 PM 42.8 °F 37.5 °F 28.4 °F 57% 30.05 in 10.0 mi West 9.2 mph - N/A   Clear
2:35 PM 42.8 °F 36.6 °F 28.4 °F 57% 30.05 in 10.0 mi WNW 11.5 mph - N/A   Clear
2:55 PM 44.6 °F 39.7 °F 26.6 °F 49% 30.03 in 10.0 mi West 9.2 mph - N/A   Clear
3:15 PM 46.4 °F 40.4 °F 26.6 °F 46% 30.03 in 10.0 mi West 13.8 mph 23.0 mph N/A   Clear
3:35 PM 46.4 °F 41.5 °F 24.8 °F 43% 30.02 in 10.0 mi West 10.4 mph 17.3 mph N/A   Scattered Clouds
3:55 PM 46.4 °F 41.5 °F 24.8 °F 43% 30.01 in 10.0 mi West 10.4 mph - N/A   Partly Cloudy
4:15 PM 46.4 °F 41.5 °F 26.6 °F 46% 30.01 in 10.0 mi WSW 10.4 mph - N/A   Clear
4:35 PM 46.4 °F 41.1 °F 24.8 °F 43% 30.01 in 10.0 mi WSW 11.5 mph - N/A   Scattered Clouds
4:55 PM 46.4 °F 38.1 °F 24.8 °F 43% 30.02 in 10.0 mi West 24.2 mph 27.6 mph N/A   Scattered Clouds
5:15 PM 42.8 °F 34.8 °F 33.8 °F 70% 30.03 in 10.0 mi West 17.3 mph - N/A   Partly Cloudy
5:35 PM 44.6 °F 37.2 °F 33.8 °F 66% 30.02 in 10.0 mi West 17.3 mph 21.9 mph N/A   Partly Cloudy
5:55 PM 44.6 °F 37.4 °F 32.0 °F 61% 30.01 in 10.0 mi West 16.1 mph - N/A   Partly Cloudy
6:15 PM 44.6 °F 37.8 °F 33.8 °F 66% 30.01 in 10.0 mi WSW 15.0 mph - N/A   Clear
6:35 PM 44.6 °F 36.9 °F 32.0 °F 61% 30.01 in 10.0 mi SW 18.4 mph - N/A   Clear
6:55 PM 44.6 °F 38.4 °F 32.0 °F 61% 30.01 in 10.0 mi SW 12.7 mph - N/A   Clear
7:15 PM 44.6 °F 39.7 °F 32.0 °F 61% 30.01 in 10.0 mi SW 9.2 mph - N/A   Clear
7:35 PM 42.8 °F 38.6 °F 32.0 °F 66% 30.01 in 10.0 mi SW 6.9 mph - N/A   Clear
7:55 PM 41.0 °F 38.0 °F 30.2 °F 65% 30.02 in 10.0 mi West 4.6 mph - N/A   Scattered Clouds
8:15 PM 41.0 °F 38.0 °F 30.2 °F 65% 30.02 in 10.0 mi West 4.6 mph - N/A   Mostly Cloudy
8:35 PM 37.4 °F 32.8 °F 26.6 °F 65% 30.03 in 10.0 mi NNW 5.8 mph - N/A   Partly Cloudy
8:55 PM 35.6 °F 30.7 °F 30.2 °F 81% 30.03 in 10.0 mi NW 5.8 mph - N/A   Clear
9:15 PM 37.4 °F 32.8 °F 33.8 °F 87% 30.03 in 10.0 mi WNW 5.8 mph - N/A   Clear
9:35 PM 33.8 °F 29.6 °F 28.4 °F 81% 30.03 in 10.0 mi NW 4.6 mph - N/A   Clear
9:55 PM 35.6 °F - 33.8 °F 93% 30.04 in 10.0 mi Calm Calm - N/A   Clear
10:15 PM 32.0 °F - 26.6 °F 80% 30.04 in 10.0 mi Calm Calm - N/A   Clear
10:35 PM 30.2 °F - 28.4 °F 93% 30.04 in 10.0 mi Calm Calm - N/A   Clear
10:55 PM 32.0 °F - 28.4 °F 87% 30.04 in 10.0 mi Calm Calm - N/A   Clear
11:15 PM 33.8 °F - 30.2 °F 87% 30.04 in 10.0 mi Calm Calm - N/A   Clear
11:35 PM 30.2 °F - 30.2 °F 100% 30.03 in 10.0 mi Calm Calm - N/A   Clear
11:55 PM 30.2 °F 25.4 °F 28.4 °F 93% 30.03 in 10.0 mi SW 4.6 mph - N/A   Clear